| time (UTC) | temp F | wind direction | speed MPH | gust MPH | rain 1hr in | rain 24hr in | rain mn in | humidity % | barometer mb |
| 20260901134526 | 58 | 76 | 0.0 | 0.0 | 0.00 | 0.00 | 0.00 | 95 | 1007.9 |
| 20260901133037 | 58 | 76 | 0.0 | 0.0 | 0.00 | 0.00 | 0.00 | 95 | 1008.0 |
| 20260901131628 | 58 | 76 | 0.0 | 0.0 | 0.00 | 0.00 | 0.00 | 95 | 1007.9 |
| 20260901130022 | 58 | 76 | 0.0 | 0.0 | 0.00 | 0.00 | 0.00 | 95 | 1007.8 |
| 20260901124522 | 58 | 76 | 0.0 | 0.0 | 0.00 | 0.00 | 0.00 | 94 | 1008.0 |
| 20260901123021 | 58 | 76 | 0.0 | 0.0 | 0.00 | 0.00 | 0.00 | 94 | 1007.9 |
| 20260901121521 | 58 | 76 | 0.0 | 0.0 | 0.00 | 0.00 | 0.00 | 94 | 1007.8 |
| 20260901120020 | 58 | 76 | 0.0 | 0.0 | 0.00 | 0.00 | 0.00 | 94 | 1007.8 |
| 20260901114519 | 58 | 76 | 0.0 | 0.0 | 0.00 | 0.00 | 0.00 | 94 | 1007.8 |
| 20260901113020 | 58 | 76 | 0.0 | 0.0 | 0.00 | 0.00 | 0.00 | 94 | 1007.8 |
| 20260901111518 | 58 | 76 | 0.0 | 0.0 | 0.00 | 0.00 | 0.00 | 94 | 1007.8 |
| 20260901110033 | 58 | 76 | 0.0 | 0.0 | 0.00 | 0.00 | 0.00 | 94 | 1007.7 |
| 20260901104517 | 58 | 192 | 0.0 | 0.0 | 0.00 | 0.01 | 0.00 | 94 | 1008.0 |
| 20260901103015 | 58 | 192 | 0.0 | 0.0 | 0.00 | 0.01 | 0.00 | 94 | 1008.1 |
| 20260901101514 | 58 | 192 | 0.0 | 0.0 | 0.00 | 0.01 | 0.00 | 94 | 1008.1 |
| 20260901100014 | 58 | 192 | 0.0 | 0.0 | 0.00 | 0.01 | 0.00 | 94 | 1008.2 |
| 20260901094521 | 58 | 192 | 0.0 | 0.0 | 0.00 | 0.01 | 0.00 | 93 | 1008.0 |
| 20260901093012 | 58 | 192 | 0.0 | 0.0 | 0.00 | 0.01 | 0.00 | 93 | 1007.9 |
| 20260901091510 | 58 | 308 | 0.0 | 0.0 | 0.00 | 0.01 | 0.00 | 93 | 1008.0 |
| 20260901090013 | 58 | 308 | 0.0 | 0.0 | 0.00 | 0.01 | 0.00 | 93 | 1007.9 |
| 20260901084508 | 58 | 308 | 0.0 | 0.0 | 0.00 | 0.01 | 0.00 | 92 | 1007.9 |
| 20260901083008 | 58 | 240 | 0.0 | 0.0 | 0.00 | 0.01 | 0.00 | 92 | 1007.9 |
| 20260901081511 | 58 | 240 | 0.0 | 0.0 | 0.00 | 0.01 | 0.00 | 92 | 1007.9 |
| 20260901080006 | 58 | 240 | 0.0 | 0.0 | 0.00 | 0.01 | 0.00 | 92 | 1007.8 |
| 20260901074506 | 58 | 240 | 0.0 | 0.0 | 0.00 | 0.01 | 0.00 | 92 | 1007.8 |
| 20260901073010 | 58 | 240 | 0.0 | 0.0 | 0.00 | 0.01 | 0.00 | 92 | 1008.0 |
| 20260901071503 | 58 | 240 | 0.0 | 0.0 | 0.00 | 0.01 | 0.00 | 92 | 1008.0 |
| 20260901070002 | 58 | 266 | 0.0 | 0.0 | 0.00 | 0.01 | 0.00 | 92 | 1007.9 |
| 20260901064601 | 58 | 340 | 0.0 | 0.0 | 0.00 | 0.01 | 0.01 | 92 | 1007.9 |
| 20260901063100 | 59 | 340 | 0.0 | 0.0 | 0.00 | 0.01 | 0.01 | 91 | 1008.0 |
| 20260901061603 | 59 | 340 | 0.0 | 0.0 | 0.00 | 0.01 | 0.01 | 91 | 1008.1 |
| 20260901060059 | 59 | 318 | 0.0 | 0.0 | 0.00 | 0.01 | 0.01 | 91 | 1008.2 |
| 20260901054558 | 59 | 315 | 0.0 | 0.0 | 0.00 | 0.01 | 0.01 | 90 | 1008.3 |
| 20260901053120 | 59 | 315 | 0.0 | 0.0 | 0.00 | 0.01 | 0.01 | 90 | 1008.4 |
| 20260901051557 | 59 | 315 | 0.0 | 0.0 | 0.00 | 0.01 | 0.01 | 89 | 1008.4 |
| 20260901050056 | 59 | 298 | 0.0 | 0.0 | 0.00 | 0.01 | 0.01 | 89 | 1008.4 |
| 20260901044555 | 59 | 279 | 0.0 | 0.0 | 0.00 | 0.01 | 0.01 | 88 | 1008.4 |
| 20260901043118 | 60 | 323 | 0.0 | 0.0 | 0.00 | 0.01 | 0.01 | 88 | 1008.3 |
| 20260901041606 | 60 | 250 | 0.0 | 0.0 | 0.00 | 0.01 | 0.01 | 87 | 1008.2 |
| 20260901034604 | 60 | 222 | 0.0 | 0.0 | 0.00 | 0.01 | 0.01 | 86 | 1008.1 |
| 20260901033104 | 60 | 268 | 0.0 | 0.0 | 0.00 | 0.01 | 0.01 | 85 | 1007.9 |
| 20260901031553 | 60 | 274 | 0.0 | 0.0 | 0.00 | 0.01 | 0.01 | 84 | 1007.8 |
| 20260901030052 | 60 | 333 | 0.0 | 0.0 | 0.00 | 0.01 | 0.01 | 83 | 1007.8 |
| 20260901024555 | 61 | 333 | 0.0 | 0.0 | 0.00 | 0.01 | 0.01 | 82 | 1007.6 |
| 20260901023051 | 61 | 333 | 0.0 | 0.0 | 0.00 | 0.01 | 0.01 | 81 | 1007.6 |
| 20260901021552 | 61 | 355 | 0.0 | 0.0 | 0.00 | 0.01 | 0.01 | 81 | 1007.4 |
| 20260901020050 | 61 | 21 | 0.0 | 4.0 | 0.00 | 0.01 | 0.01 | 81 | 1007.6 |
| 20260901014549 | 61 | 351 | 0.0 | 0.0 | 0.00 | 0.01 | 0.01 | 80 | 1007.6 |
| 20260901013049 | 61 | 17 | 0.0 | 0.0 | 0.00 | 0.01 | 0.01 | 80 | 1007.5 |
| 20260901011555 | 61 | 340 | 0.0 | 0.0 | 0.00 | 0.01 | 0.01 | 80 | 1007.6 |
| 20260901010048 | 62 | 316 | 0.0 | 0.0 | 0.00 | 0.01 | 0.01 | 79 | 1007.6 |
| 20260901004547 | 62 | 282 | 0.0 | 7.0 | 0.00 | 0.01 | 0.01 | 78 | 1007.5 |
| 20260901003055 | 62 | 360 | 0.0 | 4.0 | 0.00 | 0.01 | 0.01 | 78 | 1007.6 |
| 20260901001545 | 63 | 251 | 0.0 | 0.0 | 0.00 | 0.01 | 0.01 | 77 | 1007.5 |
| 20260901000045 | 63 | 317 | 0.0 | 0.0 | 0.00 | 0.01 | 0.01 | 76 | 1007.5 |
| 20260831234545 | 65 | 5 | 0.0 | 1.0 | 0.00 | 0.01 | 0.01 | 75 | 1007.5 |
| 20260831233044 | 64 | 332 | 0.0 | 0.0 | 0.00 | 0.01 | 0.01 | 75 | 1007.6 |
| 20260831231544 | 64 | 5 | 0.0 | 0.0 | 0.00 | 0.01 | 0.01 | 75 | 1007.7 |
| 20260831230044 | 64 | 22 | 0.0 | 0.0 | 0.00 | 0.01 | 0.01 | 73 | 1007.9 |
| 20260831224542 | 65 | 175 | 0.0 | 0.0 | 0.00 | 0.01 | 0.01 | 75 | 1007.9 |
| 20260831223043 | 65 | 270 | 0.0 | 0.0 | 0.00 | 0.01 | 0.01 | 74 | 1008.0 |
| 20260831221543 | 65 | 257 | 0.0 | 1.0 | 0.00 | 0.01 | 0.01 | 73 | 1008.0 |
| 20260831220045 | 67 | 346 | 0.0 | 0.0 | 0.00 | 0.01 | 0.01 | 71 | 1008.1 |
| 20260831214544 | 67 | 64 | 0.0 | 0.0 | 0.00 | 0.01 | 0.01 | 72 | 1008.1 |
| 20260831213043 | 66 | 360 | 0.0 | 4.0 | 0.00 | 0.01 | 0.01 | 72 | 1008.1 |
| 20260831211536 | 67 | 236 | 0.0 | 1.0 | 0.00 | 0.01 | 0.01 | 73 | 1008.1 |
| 20260831210038 | 67 | 360 | 0.0 | 0.0 | 0.00 | 0.01 | 0.01 | 74 | 1008.2 |
| 20260831204532 | 65 | 194 | 0.0 | 0.0 | 0.00 | 0.01 | 0.01 | 77 | 1008.2 |
| 20260831203047 | 65 | 338 | 0.0 | 0.0 | 0.00 | 0.01 | 0.01 | 78 | 1008.1 |
| 20260831201525 | 63 | 322 | 0.0 | 0.0 | 0.00 | 0.01 | 0.01 | 81 | 1008.2 |
| 20260831200035 | 63 | 336 | 0.0 | 2.0 | 0.00 | 0.01 | 0.01 | 82 | 1008.2 |
| 20260831194523 | 62 | 279 | 0.0 | 0.0 | 0.00 | 0.01 | 0.01 | 84 | 1008.3 |
| 20260831193025 | 62 | 279 | 0.0 | 0.0 | 0.00 | 0.01 | 0.01 | 86 | 1008.5 |
| 20260831191516 | 61 | 263 | 0.0 | 2.0 | 0.00 | 0.01 | 0.01 | 89 | 1008.4 |
| 20260831190014 | 60 | 294 | 0.0 | 0.0 | 0.00 | 0.01 | 0.01 | 92 | 1008.5 |
| 20260831184511 | 59 | 5 | 0.0 | 0.0 | 0.00 | 0.01 | 0.01 | 94 | 1008.7 |
| 20260831183007 | 57 | 5 | 0.0 | 0.0 | 0.00 | 0.01 | 0.01 | 95 | 1008.6 |
| 20260831181504 | 56 | 216 | 0.0 | 2.0 | 0.00 | 0.01 | 0.01 | 96 | 1008.5 |
| 20260831180003 | 56 | 249 | 0.0 | 0.0 | 0.00 | 0.01 | 0.01 | 96 | 1008.4 |
| 20260831174503 | 56 | 78 | 0.0 | 0.0 | 0.00 | 0.01 | 0.01 | 96 | 1008.2 |
| 20260831173106 | 56 | 24 | 0.0 | 0.0 | 0.00 | 0.01 | 0.01 | 96 | 1008.1 |
| 20260831171606 | 55 | 273 | 0.0 | 0.0 | 0.00 | 0.01 | 0.01 | 96 | 1008.1 |
| 20260831170057 | 55 | 188 | 0.0 | 0.0 | 0.00 | 0.01 | 0.01 | 96 | 1008.0 |
| 20260831164601 | 55 | 187 | 0.0 | 0.0 | 0.00 | 0.01 | 0.01 | 96 | 1007.9 |
| 20260831163053 | 54 | 188 | 0.0 | 0.0 | 0.00 | 0.01 | 0.01 | 96 | 1007.9 |
| 20260831161551 | 54 | 188 | 0.0 | 0.0 | 0.00 | 0.01 | 0.01 | 96 | 1007.9 |
| 20260831160117 | 54 | 188 | 0.0 | 0.0 | 0.00 | 0.01 | 0.01 | 96 | 1007.9 |
| 20260831154547 | 53 | 187 | 0.0 | 0.0 | 0.00 | 0.01 | 0.01 | 96 | 1007.8 |
| 20260831153120 | 53 | 188 | 0.0 | 0.0 | 0.00 | 0.01 | 0.01 | 96 | 1007.7 |
| 20260831151542 | 52 | 188 | 0.0 | 0.0 | 0.00 | 0.01 | 0.01 | 96 | 1007.6 |
| 20260831150040 | 51 | 188 | 0.0 | 0.0 | 0.00 | 0.01 | 0.01 | 96 | 1007.5 |
| 20260831144537 | 51 | 188 | 0.0 | 0.0 | 0.00 | 0.01 | 0.01 | 96 | 1007.3 |
| 20260831143038 | 51 | 188 | 0.0 | 0.0 | 0.00 | 0.01 | 0.01 | 96 | 1007.2 |
| 20260831141539 | 51 | 188 | 0.0 | 0.0 | 0.00 | 0.01 | 0.01 | 96 | 1007.0 |
| 20260831140032 | 51 | 187 | 0.0 | 0.0 | 0.00 | 0.01 | 0.01 | 96 | 1006.8 |